Roseburg, OR

5:48 PM PST on November 12, 2019 (GMT -0800)
Roseburg Regional

Weather History for KRBG - September, 2019

Change the Weather History Date:

Tuesday, September 24, 2019

  Actual Average Record
Temperature  
Mean Temperature 69 °F 63 °F  
Max Temperature 79 °F 76 °F 95 °F (1997)
Min Temperature 58 °F 50 °F 37 °F (1993)
Degree Days  
Heating Degree Days 0 3  
Month to date heating degree days 28 41  
Since 1 July heating degree days 33 62  
Cooling Degree Days 4 1  
Month to date cooling degree days 74 60  
Year to date cooling degree days 677 471  
Growing Degree Days 18 (Base 50)    
Moisture  
Dew Point 56 °F    
Average Humidity 67    
Maximum Humidity 86    
Minimum Humidity 48    
Precipitation  
Precipitation 0.00 in 0.04 in 1.37 in (2014)
Month to date precipitation 2.15 0.70  
Year to date precipitation 24.92 20.35  
Sea Level Pressure  
Sea Level Pressure 30.24 in    
Wind  
Wind Speed 4 mph (North)    
Max Wind Speed 14 mph    
Max Gust Speed 17 mph    
Visibility 10 miles    
Events      
T = Trace of Precipitation, MM = Missing Value Source: NWS Daily Summary

Daily Weather History Graph

Daily Weather History Graph

Search for Another Location

Airport or City:

Astronomy

Sep. 24, 2019 Rise Set
Actual Time 7:02 AM PDT 7:07 PM PDT
Civil Twilight 6:34 AM PDT 7:35 PM PDT
Nautical Twilight 6:01 AM PDT 8:08 PM PDT
Astronomical Twilight 5:27 AM PDT 8:42 PM PDT
Moon 1:44 AM PDT (9/24) 5:06 PM PDT (9/24)
Length of Visible Light 13h 01m
Length of Day
12h 04m
Waning Crescent, 22% of the Moon is Illuminated
Sep 24
Waning Crescent
Sep 28
New
Oct 5
First Quarter
Oct 13
Full
Oct 21
Last Quarter

Hourly Weather History & Observations

Time (PDT) Temp. Dew Point Humidity Pressure Visibility Wind Dir Wind Speed Gust Speed Precip Events Conditions
12:53 AM 57.9 °F 52.0 °F 81% 30.27 in 10.0 mi Calm Calm - N/A   Mostly Cloudy
1:53 AM 57.9 °F 53.1 °F 84% 30.28 in 10.0 mi Calm Calm - N/A   Overcast
2:53 AM 59.0 °F 54.0 °F 83% 30.28 in 10.0 mi SSE 3.5 mph - N/A   Overcast
3:53 AM 59.0 °F 53.1 °F 81% 30.29 in 10.0 mi Calm Calm - N/A   Overcast
4:53 AM 57.9 °F 53.1 °F 84% 30.28 in 10.0 mi SE 4.6 mph - N/A   Overcast
5:53 AM 57.9 °F 54.0 °F 87% 30.29 in 10.0 mi Calm Calm - N/A   Overcast
6:53 AM 57.9 °F 54.0 °F 87% 30.30 in 10.0 mi Calm Calm - N/A   Overcast
7:53 AM 59.0 °F 54.0 °F 83% 30.30 in 10.0 mi SSE 3.5 mph - N/A   Overcast
8:53 AM 60.1 °F 54.0 °F 80% 30.31 in 10.0 mi Calm Calm - N/A   Overcast
9:53 AM 64.0 °F 54.0 °F 70% 30.30 in 10.0 mi Variable 3.5 mph - N/A   Overcast
11:53 AM 72.0 °F 54.0 °F 53% 30.27 in 10.0 mi Calm Calm - N/A   Clear
12:53 PM 75.9 °F 55.9 °F 50% 30.25 in 10.0 mi North 8.1 mph - N/A   Clear
1:53 PM 77.0 °F 57.9 °F 52% 30.24 in 10.0 mi North 6.9 mph 17.3 mph N/A   Partly Cloudy
2:53 PM 78.1 °F 59.0 °F 52% 30.22 in 10.0 mi North 12.7 mph - N/A   Overcast
3:53 PM 77.0 °F 57.9 °F 52% 30.21 in 10.0 mi North 10.4 mph 17.3 mph N/A   Mostly Cloudy
4:53 PM 78.1 °F 57.9 °F 50% 30.19 in 10.0 mi NNW 6.9 mph - N/A   Partly Cloudy
5:53 PM 77.0 °F 57.9 °F 52% 30.18 in 10.0 mi NNW 6.9 mph - N/A   Clear
6:53 PM 75.0 °F 57.9 °F 55% 30.18 in 10.0 mi NW 4.6 mph - N/A   Clear
7:53 PM 73.0 °F 59.0 °F 61% 30.19 in 10.0 mi NNE 3.5 mph - N/A   Clear
8:53 PM 71.1 °F 57.9 °F 63% 30.20 in 10.0 mi NNW 6.9 mph - N/A   Clear
9:53 PM 69.1 °F 57.9 °F 68% 30.20 in 10.0 mi Calm Calm - N/A   Clear
10:53 PM 66.0 °F 57.9 °F 75% 30.19 in 10.0 mi Calm Calm - N/A   Clear
11:53 PM 64.0 °F 57.0 °F 78% 30.19 in 10.0 mi Calm Calm - N/A   Clear